Time,TemperatureF,DewpointF,PressureIn,WindDirection,WindDirectionDegrees,WindSpeedMPH,WindSpeedGustMPH,Humidity,HourlyPrecipIn,Conditions,Clouds,dailyrainin,SoftwareType,DateUTC
2013-02-09 00:00:00,38.5,27.0,30.05,NNW,328,4.0,4.0,63,0.00,,FEW050,0.00,VWS V14.01,2013-02-09 05:00:00,
2013-02-09 00:01:00,38.4,26.9,30.05,NW,317,3.0,4.0,63,0.00,,FEW050,0.00,VWS V14.01,2013-02-09 05:01:00,
2013-02-09 00:03:00,38.3,27.2,30.05,NW,310,4.0,6.0,64,0.00,,FEW050,0.00,VWS V14.01,2013-02-09 05:03:00,
2013-02-09 00:08:00,38.5,27.0,30.05,NNW,329,3.0,9.0,63,0.00,,FEW050,0.00,VWS V14.01,2013-02-09 05:08:00,
2013-02-09 00:14:00,38.4,26.9,30.05,NNW,333,4.0,9.0,63,0.00,,FEW050,0.00,VWS V14.01,2013-02-09 05:14:00,
2013-02-09 00:21:00,38.3,26.8,30.05,NW,321,5.0,9.0,63,0.00,,FEW050,0.00,VWS V14.01,2013-02-09 05:21:00,
2013-02-09 00:27:00,38.3,26.8,30.05,WNW,294,11.0,11.0,63,0.00,,FEW050,0.00,VWS V14.01,2013-02-09 05:27:00,
2013-02-09 00:30:00,38.2,27.1,30.05,NW,311,2.0,11.0,64,0.00,,BKN049,0.00,VWS V14.01,2013-02-09 05:30:00,
2013-02-09 00:32:00,38.2,26.7,30.04,NW,322,5.0,5.0,63,0.00,,FEW050,0.00,VWS V14.01,2013-02-09 05:32:00,
2013-02-09 00:37:00,38.1,26.6,30.04,NNW,338,4.0,5.0,63,0.00,,FEW050,0.00,VWS V14.01,2013-02-09 05:37:00,
2013-02-09 00:43:00,38.1,26.6,30.04,North,350,5.0,5.0,63,0.00,,FEW050,0.00,VWS V14.01,2013-02-09 05:43:00,
2013-02-09 00:48:00,38.1,26.6,30.04,West,278,3.0,8.0,63,0.00,,FEW050,0.00,VWS V14.01,2013-02-09 05:48:00,
2013-02-09 00:54:00,38.0,26.9,30.04,WNW,302,3.0,8.0,64,0.00,,FEW050,0.00,VWS V14.01,2013-02-09 05:54:00,
2013-02-09 00:59:00,37.9,26.8,30.04,NW,306,6.0,12.0,64,0.00,,FEW050,0.00,VWS V14.01,2013-02-09 05:59:00,
2013-02-09 01:00:00,37.9,26.8,30.04,WNW,299,6.0,12.0,64,0.00,,BKN049,0.00,VWS V14.01,2013-02-09 06:00:00,
2013-02-09 01:04:00,38.0,26.5,30.04,WNW,292,5.0,11.0,63,0.00,,FEW050,0.00,VWS V14.01,2013-02-09 06:04:00,
2013-02-09 01:10:00,37.8,26.7,30.05,NW,324,3.0,11.0,64,0.00,,FEW050,0.00,VWS V14.01,2013-02-09 06:10:00,
2013-02-09 01:17:00,37.7,26.6,30.05,NW,318,2.0,11.0,64,0.00,,FEW050,0.00,VWS V14.01,2013-02-09 06:17:00,
2013-02-09 01:23:00,37.5,26.5,30.05,WNW,286,2.0,11.0,64,0.00,,FEW050,0.00,VWS V14.01,2013-02-09 06:23:00,
2013-02-09 01:29:00,37.4,26.4,30.05,WNW,294,2.0,11.0,64,0.00,,FEW050,0.00,VWS V14.01,2013-02-09 06:29:00,
2013-02-09 01:30:00,37.4,26.4,30.05,WNW,302,1.0,11.0,64,0.00,,BKN049,0.00,VWS V14.01,2013-02-09 06:30:00,
2013-02-09 01:34:00,37.3,26.3,30.05,WNW,288,2.0,9.0,64,0.00,,FEW050,0.00,VWS V14.01,2013-02-09 06:34:00,
2013-02-09 01:40:00,37.1,26.1,30.05,NNW,340,3.0,9.0,64,0.00,,FEW050,0.00,VWS V14.01,2013-02-09 06:40:00,
2013-02-09 01:45:00,37.0,26.0,30.05,NW,304,1.0,11.0,64,0.00,,FEW050,0.00,VWS V14.01,2013-02-09 06:45:00,
2013-02-09 01:50:00,36.8,25.4,30.05,NW,307,4.0,11.0,63,0.00,,FEW050,0.00,VWS V14.01,2013-02-09 06:50:00,
2013-02-09 01:56:00,36.8,25.4,30.05,WNW,287,6.0,11.0,63,0.00,,FEW050,0.00,VWS V14.01,2013-02-09 06:56:00,
2013-02-09 02:00:00,36.9,25.5,30.05,NW,306,4.0,11.0,63,0.00,,BKN049,0.00,VWS V14.01,2013-02-09 07:00:00,
2013-02-09 02:03:00,36.8,25.4,30.05,NNW,344,4.0,6.0,63,0.00,,FEW050,0.00,VWS V14.01,2013-02-09 07:03:00,
2013-02-09 02:09:00,36.9,25.1,30.05,NNW,348,5.0,7.0,62,0.00,,FEW050,0.00,VWS V14.01,2013-02-09 07:09:00,
2013-02-09 02:14:00,36.9,25.1,30.05,WNW,302,5.0,8.0,62,0.00,,FEW050,0.00,VWS V14.01,2013-02-09 07:14:00,
2013-02-09 02:19:00,36.8,25.0,30.05,NW,311,2.0,8.0,62,0.00,,FEW050,0.00,VWS V14.01,2013-02-09 07:19:00,
2013-02-09 02:25:00,36.4,25.0,30.05,NW,310,3.0,8.0,63,0.00,,FEW050,0.00,VWS V14.01,2013-02-09 07:25:00,
2013-02-09 02:30:00,36.3,24.5,30.05,NW,316,3.0,8.0,62,0.00,,BKN049,0.00,VWS V14.01,2013-02-09 07:30:00,
2013-02-09 02:32:00,36.3,24.5,30.05,WNW,303,4.0,6.0,62,0.00,,FEW050,0.00,VWS V14.01,2013-02-09 07:32:00,
2013-02-09 02:37:00,36.1,24.7,30.04,NW,317,3.0,9.0,63,0.00,,FEW050,0.00,VWS V14.01,2013-02-09 07:37:00,
2013-02-09 02:43:00,35.9,24.5,30.04,NW,308,3.0,12.0,63,0.00,,FEW050,0.00,VWS V14.01,2013-02-09 07:43:00,
2013-02-09 02:48:00,35.9,24.5,30.04,NW,307,3.0,12.0,63,0.00,,FEW050,0.00,VWS V14.01,2013-02-09 07:48:00,
2013-02-09 02:53:00,35.8,24.5,30.04,WNW,299,4.0,12.0,63,0.00,,FEW050,0.00,VWS V14.01,2013-02-09 07:53:00,
2013-02-09 02:59:00,35.7,24.4,30.04,NW,313,2.0,12.0,63,0.00,,FEW050,0.00,VWS V14.01,2013-02-09 07:59:00,
2013-02-09 03:00:00,35.7,24.4,30.04,NW,313,2.0,12.0,63,0.00,,BKN049,0.00,VWS V14.01,2013-02-09 08:00:00,
2013-02-09 03:05:00,35.7,24.4,30.05,NW,309,2.0,5.0,63,0.00,,FEW050,0.00,VWS V14.01,2013-02-09 08:05:00,
2013-02-09 03:13:00,35.6,23.9,30.05,NW,316,1.0,5.0,62,0.00,,FEW050,0.00,VWS V14.01,2013-02-09 08:13:00,
2013-02-09 03:19:00,35.4,24.1,30.05,NNW,329,1.0,5.0,63,0.00,,FEW050,0.00,VWS V14.01,2013-02-09 08:19:00,
2013-02-09 03:24:00,35.1,23.8,30.05,WNW,292,2.0,5.0,63,0.00,,FEW050,0.00,VWS V14.01,2013-02-09 08:24:00,
2013-02-09 03:30:00,35.0,23.7,30.05,NNW,346,1.0,1.0,63,0.00,,FEW050,0.00,VWS V14.01,2013-02-09 08:30:00,
2013-02-09 03:35:00,34.9,23.6,30.06,NW,320,2.0,6.0,63,0.00,,FEW050,0.00,VWS V14.01,2013-02-09 08:35:00,
2013-02-09 03:40:00,34.8,23.5,30.05,NW,315,4.0,6.0,63,0.00,,FEW050,0.00,VWS V14.01,2013-02-09 08:40:00,
2013-02-09 03:46:00,34.9,23.2,30.06,NW,313,2.0,6.0,62,0.00,,FEW050,0.00,VWS V14.01,2013-02-09 08:46:00,
2013-02-09 03:52:00,35.0,22.9,30.05,NNW,342,4.0,6.0,61,0.00,,FEW050,0.00,VWS V14.01,2013-02-09 08:52:00,
2013-02-09 03:57:00,35.2,23.1,30.05,NNW,336,3.0,6.0,61,0.00,,FEW050,0.00,VWS V14.01,2013-02-09 08:57:00,
2013-02-09 04:00:00,35.2,23.1,30.05,NW,320,2.0,6.0,61,0.00,,BKN049,0.00,VWS V14.01,2013-02-09 09:00:00,
2013-02-09 04:02:00,35.1,23.0,30.05,NNW,337,3.0,6.0,61,0.00,,FEW050,0.00,VWS V14.01,2013-02-09 09:02:00,
2013-02-09 04:08:00,35.1,22.6,30.05,NNW,331,2.0,6.0,60,0.00,,FEW050,0.00,VWS V14.01,2013-02-09 09:08:00,
2013-02-09 04:13:00,35.0,22.5,30.05,NNW,348,2.0,6.0,60,0.00,,FEW050,0.00,VWS V14.01,2013-02-09 09:13:00,
2013-02-09 04:18:00,35.1,22.6,30.05,North,350,7.0,7.0,60,0.00,,FEW050,0.00,VWS V14.01,2013-02-09 09:18:00,
2013-02-09 04:24:00,35.2,22.3,30.06,WNW,292,5.0,10.0,59,0.00,,FEW050,0.00,VWS V14.01,2013-02-09 09:24:00,
2013-02-09 04:29:00,35.3,22.0,30.06,NW,306,4.0,10.0,58,0.00,,FEW050,0.00,VWS V14.01,2013-02-09 09:29:00,
2013-02-09 04:30:00,35.3,22.0,30.06,NW,307,3.0,10.0,58,0.00,,BKN049,0.00,VWS V14.01,2013-02-09 09:30:00,
2013-02-09 04:34:00,35.2,21.9,30.07,NW,319,3.0,8.0,58,0.00,,FEW050,0.00,VWS V14.01,2013-02-09 09:34:00,
2013-02-09 04:40:00,35.2,21.9,30.07,WNW,298,3.0,8.0,58,0.00,,FEW050,0.00,VWS V14.01,2013-02-09 09:40:00,
2013-02-09 04:47:00,35.2,21.5,30.08,WNW,298,1.0,8.0,57,0.00,,FEW050,0.00,VWS V14.01,2013-02-09 09:47:00,
2013-02-09 04:53:00,35.2,21.1,30.08,WSW,256,0.0,8.0,56,0.00,,FEW050,0.00,VWS V14.01,2013-02-09 09:53:00,
2013-02-09 04:58:00,35.0,21.7,30.09,WNW,288,0.0,8.0,58,0.00,,FEW050,0.00,VWS V14.01,2013-02-09 09:58:00,
2013-02-09 05:00:00,35.0,21.3,30.09,NW,323,0.0,8.0,57,0.00,,BKN049,0.00,VWS V14.01,2013-02-09 10:00:00,
2013-02-09 05:03:00,34.9,21.6,30.10,SW,219,0.0,2.0,58,0.00,,FEW050,0.00,VWS V14.01,2013-02-09 10:03:00,
2013-02-09 05:09:00,34.9,20.8,30.11,WSW,245,0.0,5.0,56,0.00,,FEW050,0.00,VWS V14.01,2013-02-09 10:09:00,
2013-02-09 05:14:00,34.8,21.1,30.11,SSW,211,0.0,5.0,57,0.00,,FEW050,0.00,VWS V14.01,2013-02-09 10:14:00,
2013-02-09 05:19:00,34.7,21.5,30.11,SSW,202,0.0,5.0,58,0.00,,FEW050,0.00,VWS V14.01,2013-02-09 10:19:00,
2013-02-09 05:25:00,34.3,21.5,30.11,South,175,0.0,5.0,59,0.00,,FEW050,0.00,VWS V14.01,2013-02-09 10:25:00,
2013-02-09 05:30:00,33.7,22.1,30.12,WSW,249,1.0,2.0,62,0.00,,FEW050,0.00,VWS V14.01,2013-02-09 10:30:00,
2013-02-09 05:35:00,33.2,22.4,30.12,SW,223,0.0,3.0,64,0.00,,FEW050,0.00,VWS V14.01,2013-02-09 10:35:00,
2013-02-09 05:41:00,32.7,21.9,30.12,SW,223,0.0,3.0,64,0.00,,FEW050,0.00,VWS V14.01,2013-02-09 10:41:00,
2013-02-09 05:47:00,32.1,21.7,30.12,West,263,0.0,3.0,65,0.00,,FEW050,0.00,VWS V14.01,2013-02-09 10:47:00,
2013-02-09 05:52:00,31.7,21.7,30.13,WSW,241,3.0,4.0,66,0.00,,FEW050,0.00,VWS V14.01,2013-02-09 10:52:00,
2013-02-09 05:58:00,31.1,21.8,30.13,West,277,0.0,4.0,68,0.00,,FEW050,0.00,VWS V14.01,2013-02-09 10:58:00,
2013-02-09 06:00:00,30.9,21.9,30.13,West,275,1.0,4.0,69,0.00,,BKN049,0.00,VWS V14.01,2013-02-09 11:00:00,
2013-02-09 06:04:00,30.5,22.2,30.14,WSW,240,2.0,5.0,71,0.00,,FEW050,0.00,VWS V14.01,2013-02-09 11:04:00,
2013-02-09 06:10:00,30.2,21.9,30.14,WSW,250,2.0,5.0,71,0.00,,FEW050,0.00,VWS V14.01,2013-02-09 11:10:00,
2013-02-09 06:15:00,30.4,21.8,30.14,SW,232,0.0,5.0,70,0.00,,FEW050,0.00,VWS V14.01,2013-02-09 11:15:00,
2013-02-09 06:20:00,30.7,21.4,30.15,SE,146,4.0,5.0,68,0.00,,FEW050,0.00,VWS V14.01,2013-02-09 11:20:00,
2013-02-09 06:27:00,31.1,21.1,30.15,SE,130,3.0,5.0,66,0.00,,FEW050,0.00,VWS V14.01,2013-02-09 11:27:00,
2013-02-09 06:30:00,31.4,21.0,30.16,SE,146,1.0,5.0,65,0.00,,BKN049,0.00,VWS V14.01,2013-02-09 11:30:00,
2013-02-09 06:32:00,31.6,21.6,30.16,SE,136,4.0,4.0,66,0.00,,FEW050,0.00,VWS V14.01,2013-02-09 11:32:00,
2013-02-09 06:38:00,31.6,21.6,30.16,SE,146,0.0,4.0,66,0.00,,FEW050,0.00,VWS V14.01,2013-02-09 11:38:00,
2013-02-09 06:43:00,31.3,22.7,30.17,SE,146,0.0,4.0,70,0.00,,FEW050,0.00,VWS V14.01,2013-02-09 11:43:00,
2013-02-09 06:48:00,30.8,21.9,30.17,SE,139,3.0,4.0,69,0.00,,FEW050,0.00,VWS V14.01,2013-02-09 11:48:00,
2013-02-09 06:53:00,30.3,22.0,30.17,SE,146,1.0,4.0,71,0.00,,FEW050,0.00,VWS V14.01,2013-02-09 11:53:00,
2013-02-09 06:59:00,30.4,21.1,30.17,SSW,212,4.0,4.0,68,0.00,,FEW050,0.00,VWS V14.01,2013-02-09 11:59:00,
2013-02-09 07:00:00,30.4,21.8,30.17,SW,214,2.0,4.0,70,0.00,,BKN049,0.00,VWS V14.01,2013-02-09 12:00:00,
2013-02-09 07:04:00,30.7,21.1,30.18,SW,225,3.0,5.0,67,0.00,,FEW050,0.00,VWS V14.01,2013-02-09 12:04:00,
2013-02-09 07:10:00,31.6,20.8,30.18,SE,140,2.0,5.0,64,0.00,,FEW050,0.00,VWS V14.01,2013-02-09 12:10:00,
2013-02-09 07:18:00,32.7,20.8,30.19,NE,46,0.0,5.0,61,0.00,,FEW050,0.00,VWS V14.01,2013-02-09 12:18:00,
2013-02-09 07:23:00,32.9,20.2,30.19,NE,46,0.0,5.0,59,0.00,,FEW050,0.00,VWS V14.01,2013-02-09 12:23:00,
2013-02-09 07:29:00,32.5,21.3,30.19,North,9,0.0,5.0,63,0.00,,FEW050,0.00,VWS V14.01,2013-02-09 12:29:00,
2013-02-09 07:30:00,32.5,20.9,30.19,North,9,0.0,5.0,62,0.00,,BKN049,0.00,VWS V14.01,2013-02-09 12:30:00,
2013-02-09 07:34:00,32.7,20.8,30.20,NNW,340,1.0,4.0,61,0.00,,FEW050,0.00,VWS V14.01,2013-02-09 12:34:00,
2013-02-09 07:40:00,33.0,20.2,30.20,NW,317,2.0,5.0,59,0.00,,FEW050,0.00,VWS V14.01,2013-02-09 12:40:00,
2013-02-09 07:47:00,33.8,20.6,30.20,NW,311,2.0,5.0,58,0.00,,FEW050,0.00,VWS V14.01,2013-02-09 12:47:00,
2013-02-09 07:52:00,34.0,20.4,30.20,WNW,286,4.0,5.0,57,0.00,,FEW050,0.00,VWS V14.01,2013-02-09 12:52:00,
2013-02-09 07:58:00,34.4,20.3,30.21,NNW,327,2.0,6.0,56,0.00,,FEW050,0.00,VWS V14.01,2013-02-09 12:58:00,
2013-02-09 08:00:00,34.5,20.4,30.22,NW,312,6.0,6.0,56,0.00,,BKN049,0.00,VWS V14.01,2013-02-09 13:00:00,
2013-02-09 08:05:00,34.7,20.6,30.22,NW,304,1.0,6.0,56,0.00,,FEW050,0.00,VWS V14.01,2013-02-09 13:05:00,
2013-02-09 08:11:00,34.8,20.7,30.23,NW,305,1.0,6.0,56,0.00,,FEW050,0.00,VWS V14.01,2013-02-09 13:11:00,
2013-02-09 08:17:00,35.0,20.5,30.23,WNW,290,1.0,6.0,55,0.00,,FEW050,0.00,VWS V14.01,2013-02-09 13:17:00,
2013-02-09 08:22:00,35.2,20.2,30.23,NW,306,0.0,6.0,54,0.00,,FEW050,0.00,VWS V14.01,2013-02-09 13:22:00,
2013-02-09 08:28:00,35.5,20.5,30.24,NW,304,1.0,6.0,54,0.00,,FEW050,0.00,VWS V14.01,2013-02-09 13:28:00,
2013-02-09 08:30:00,35.6,21.0,30.24,NW,307,1.0,6.0,55,0.00,,BKN049,0.00,VWS V14.01,2013-02-09 13:30:00,
2013-02-09 08:34:00,35.8,19.9,30.24,NNW,333,2.0,5.0,52,0.00,,FEW050,0.00,VWS V14.01,2013-02-09 13:34:00,
2013-02-09 08:40:00,36.0,19.2,30.24,North,5,2.0,6.0,50,0.00,,FEW050,0.00,VWS V14.01,2013-02-09 13:40:00,
2013-02-09 08:45:00,36.3,19.5,30.24,WNW,303,3.0,6.0,50,0.00,,FEW050,0.00,VWS V14.01,2013-02-09 13:45:00,
2013-02-09 08:50:00,36.7,19.4,30.25,North,349,1.0,7.0,49,0.00,,FEW050,0.00,VWS V14.01,2013-02-09 13:50:00,
2013-02-09 08:57:00,36.9,19.5,30.25,NW,320,2.0,7.0,49,0.00,,FEW050,0.00,VWS V14.01,2013-02-09 13:57:00,
2013-02-09 09:00:00,37.0,18.7,30.25,NW,306,6.0,7.0,47,0.00,,BKN049,0.00,VWS V14.01,2013-02-09 14:00:00,
2013-02-09 09:02:00,37.1,18.8,30.25,NW,306,5.0,7.0,47,0.00,,FEW050,0.00,VWS V14.01,2013-02-09 14:02:00,
2013-02-09 09:09:00,37.3,18.4,30.25,WNW,298,5.0,10.0,46,0.00,,FEW050,0.00,VWS V14.01,2013-02-09 14:09:00,
2013-02-09 09:18:00,37.4,18.0,30.25,North,355,3.0,10.0,45,0.00,,FEW050,0.00,VWS V14.01,2013-02-09 14:18:00,
2013-02-09 09:25:00,37.9,18.5,30.25,WNW,293,5.0,10.0,45,0.00,,FEW050,0.00,VWS V14.01,2013-02-09 14:25:00,
2013-02-09 09:30:00,38.2,18.8,30.25,WNW,290,5.0,10.0,45,0.00,,BKN049,0.00,VWS V14.01,2013-02-09 14:30:00,
2013-02-09 09:31:00,38.3,18.8,30.26,NW,317,4.0,10.0,45,0.00,,FEW050,0.00,VWS V14.01,2013-02-09 14:31:00,
2013-02-09 09:37:00,38.5,18.0,30.27,NW,316,1.0,10.0,43,0.00,,FEW050,0.00,VWS V14.01,2013-02-09 14:37:00,
2013-02-09 09:43:00,39.0,17.3,30.27,West,275,5.0,10.0,41,0.00,,FEW050,0.00,VWS V14.01,2013-02-09 14:43:00,
2013-02-09 09:48:00,39.4,20.4,30.27,NE,44,0.0,10.0,46,0.00,,FEW050,0.00,VWS V14.01,2013-02-09 14:48:00,
2013-02-09 09:54:00,39.9,17.0,30.28,NNE,31,3.0,10.0,39,0.00,,FEW050,0.00,VWS V14.01,2013-02-09 14:54:00,
2013-02-09 09:59:00,39.6,18.4,30.28,NNW,347,3.0,10.0,42,0.00,,FEW050,0.00,VWS V14.01,2013-02-09 14:59:00,
2013-02-09 10:00:00,39.6,18.4,30.28,NNW,347,3.0,10.0,42,0.00,,BKN049,0.00,VWS V14.01,2013-02-09 15:00:00,
2013-02-09 10:07:00,39.2,16.9,30.27,WNW,293,5.0,7.0,40,0.00,,FEW050,0.00,VWS V14.01,2013-02-09 15:07:00,
2013-02-09 10:13:00,39.4,18.2,30.26,WNW,303,6.0,7.0,42,0.00,,FEW050,0.00,VWS V14.01,2013-02-09 15:13:00,
2013-02-09 10:18:00,39.8,18.0,30.26,NW,309,7.0,13.0,41,0.00,,FEW050,0.00,VWS V14.01,2013-02-09 15:18:00,
2013-02-09 10:25:00,40.0,18.8,30.27,North,351,4.0,13.0,42,0.00,,FEW050,0.00,VWS V14.01,2013-02-09 15:25:00,
2013-02-09 10:30:00,40.4,18.0,30.28,NNE,13,1.0,3.0,40,0.00,,FEW050,0.00,VWS V14.01,2013-02-09 15:30:00,
2013-02-09 10:36:00,40.6,17.0,30.28,WNW,301,6.0,7.0,38,0.00,,FEW050,0.00,VWS V14.01,2013-02-09 15:36:00,
2013-02-09 10:41:00,40.7,17.7,30.29,NNW,342,3.0,7.0,39,0.00,,FEW050,0.00,VWS V14.01,2013-02-09 15:41:00,
2013-02-09 10:47:00,40.9,17.3,30.29,NW,321,3.0,7.0,38,0.00,,FEW050,0.00,VWS V14.01,2013-02-09 15:47:00,
2013-02-09 10:53:00,41.0,18.0,30.29,NW,314,3.0,7.0,39,0.00,,FEW050,0.00,VWS V14.01,2013-02-09 15:53:00,
2013-02-09 10:58:00,41.5,17.2,30.29,WNW,301,3.0,7.0,37,0.00,,FEW050,0.00,VWS V14.01,2013-02-09 15:58:00,
2013-02-09 11:00:00,41.6,17.9,30.29,NW,325,3.0,7.0,38,0.00,,BKN049,0.00,VWS V14.01,2013-02-09 16:00:00,
2013-02-09 11:05:00,41.8,16.8,30.30,West,271,6.0,8.0,36,0.00,,FEW050,0.00,VWS V14.01,2013-02-09 16:05:00,
2013-02-09 11:11:00,42.2,19.0,30.30,North,355,1.0,8.0,39,0.00,,FEW050,0.00,VWS V14.01,2013-02-09 16:11:00,
2013-02-09 11:22:00,42.5,18.1,30.29,NNW,348,2.0,9.0,37,0.00,,FEW050,0.00,VWS V14.01,2013-02-09 16:22:00,
2013-02-09 11:27:00,43.3,18.2,30.28,WNW,302,5.0,9.0,36,0.00,,FEW050,0.00,VWS V14.01,2013-02-09 16:27:00,
2013-02-09 11:30:00,43.4,16.9,30.28,WSW,255,8.0,12.0,34,0.00,,BKN049,0.00,VWS V14.01,2013-02-09 16:30:00,
2013-02-09 11:32:00,43.0,17.2,30.28,NNW,329,6.0,12.0,35,0.00,,FEW050,0.00,VWS V14.01,2013-02-09 16:32:00,
2013-02-09 11:38:00,43.1,18.0,30.28,North,360,1.0,12.0,36,0.00,,FEW050,0.00,VWS V14.01,2013-02-09 16:38:00,
2013-02-09 11:43:00,43.7,18.5,30.28,NW,309,9.0,12.0,36,0.00,,FEW050,0.00,VWS V14.01,2013-02-09 16:43:00,
2013-02-09 11:48:00,43.6,16.4,30.29,NW,324,6.0,12.0,33,0.00,,FEW050,0.00,VWS V14.01,2013-02-09 16:48:00,
2013-02-09 11:54:00,43.9,18.0,30.29,WNW,301,3.0,12.0,35,0.00,,FEW050,0.00,VWS V14.01,2013-02-09 16:54:00,
2013-02-09 11:59:00,43.9,18.0,30.28,North,355,1.0,12.0,35,0.00,,FEW050,0.00,VWS V14.01,2013-02-09 16:59:00,
2013-02-09 12:00:00,44.0,18.1,30.28,WNW,303,2.0,12.0,35,0.00,,BKN049,0.00,VWS V14.01,2013-02-09 17:00:00,
2013-02-09 12:04:00,44.1,18.2,30.28,North,11,3.0,6.0,35,0.00,,FEW050,0.00,VWS V14.01,2013-02-09 17:04:00,
2013-02-09 12:10:00,44.6,17.3,30.29,NW,304,4.0,6.0,33,0.00,,FEW050,0.00,VWS V14.01,2013-02-09 17:10:00,
2013-02-09 12:17:00,45.1,18.4,30.29,WNW,301,4.0,7.0,34,0.00,,FEW050,0.00,VWS V14.01,2013-02-09 17:17:00,
2013-02-09 12:23:00,45.1,17.0,30.29,West,267,8.0,8.0,32,0.00,,FEW050,0.00,VWS V14.01,2013-02-09 17:23:00,
2013-02-09 12:29:00,45.2,17.8,30.29,NNW,331,3.0,11.0,33,0.00,,FEW050,0.00,VWS V14.01,2013-02-09 17:29:00,
2013-02-09 12:30:00,45.2,17.8,30.29,NNE,14,3.0,11.0,33,0.00,,BKN049,0.00,VWS V14.01,2013-02-09 17:30:00,
2013-02-09 12:35:00,45.7,17.5,30.28,North,350,4.0,6.0,32,0.00,,FEW050,0.00,VWS V14.01,2013-02-09 17:35:00,
2013-02-09 12:40:00,46.2,18.0,30.28,North,349,3.0,6.0,32,0.00,,FEW050,0.00,VWS V14.01,2013-02-09 17:40:00,
2013-02-09 12:47:00,46.0,16.3,30.28,NW,317,1.0,6.0,30,0.00,,FEW050,0.00,VWS V14.01,2013-02-09 17:47:00,
2013-02-09 12:52:00,46.0,17.1,30.28,WNW,285,1.0,6.0,31,0.00,,FEW050,0.00,VWS V14.01,2013-02-09 17:52:00,
2013-02-09 12:58:00,46.8,19.9,30.27,NNW,347,0.0,6.0,34,0.00,,FEW050,0.00,VWS V14.01,2013-02-09 17:58:00,
2013-02-09 13:00:00,47.1,19.5,30.27,West,265,6.0,6.0,33,0.00,,BKN049,0.00,VWS V14.01,2013-02-09 18:00:00,
2013-02-09 13:05:00,47.2,18.1,30.27,North,349,2.0,6.0,31,0.00,,FEW050,0.00,VWS V14.01,2013-02-09 18:05:00,
2013-02-09 13:10:00,47.4,18.3,30.27,North,355,2.0,6.0,31,0.00,,FEW050,0.00,VWS V14.01,2013-02-09 18:10:00,
2013-02-09 13:15:00,47.3,17.5,30.27,NNW,339,3.0,6.0,30,0.00,,FEW050,0.00,VWS V14.01,2013-02-09 18:15:00,
2013-02-09 13:20:00,47.4,18.3,30.27,NNE,24,0.0,6.0,31,0.00,,FEW050,0.00,VWS V14.01,2013-02-09 18:20:00,
2013-02-09 13:30:00,48.2,17.5,30.27,North,5,0.0,13.0,29,0.00,,BKN049,0.00,VWS V14.01,2013-02-09 18:30:00,
2013-02-09 13:59:00,48.6,17.0,30.27,North,5,2.0,11.0,28,0.00,,FEW050,0.00,VWS V14.01,2013-02-09 18:59:00,
2013-02-09 14:00:00,48.6,18.6,30.27,NE,45,6.0,11.0,30,0.00,,BKN049,0.00,VWS V14.01,2013-02-09 19:00:00,
2013-02-09 14:05:00,49.1,19.0,30.27,NNW,332,0.0,6.0,30,0.00,,CLR,0.00,VWS V14.01,2013-02-09 19:05:00,
2013-02-09 14:10:00,49.4,16.0,30.26,NNW,344,1.0,6.0,26,0.00,,CLR,0.00,VWS V14.01,2013-02-09 19:10:00,
2013-02-09 14:17:00,49.8,18.8,30.27,WNW,288,3.0,6.0,29,0.00,,CLR,0.00,VWS V14.01,2013-02-09 19:17:00,
2013-02-09 14:22:00,50.0,16.5,30.26,NNE,17,3.0,7.0,26,0.00,,CLR,0.00,VWS V14.01,2013-02-09 19:22:00,
2013-02-09 14:28:00,50.5,18.6,30.26,NW,304,4.0,7.0,28,0.00,,CLR,0.00,VWS V14.01,2013-02-09 19:28:00,
2013-02-09 14:30:00,50.6,17.0,30.26,NW,304,2.0,7.0,26,0.00,,BKN049,0.00,VWS V14.01,2013-02-09 19:30:00,
2013-02-09 14:33:00,50.7,18.0,30.26,WNW,300,2.0,5.0,27,0.00,,CLR,0.00,VWS V14.01,2013-02-09 19:33:00,
2013-02-09 14:38:00,50.6,16.1,30.26,North,5,5.0,5.0,25,0.00,,CLR,0.00,VWS V14.01,2013-02-09 19:38:00,
2013-02-09 14:44:00,50.6,18.7,30.26,NNE,25,0.0,6.0,28,0.00,,CLR,0.00,VWS V14.01,2013-02-09 19:44:00,
2013-02-09 14:49:00,50.7,18.0,30.26,NE,55,0.0,6.0,27,0.00,,CLR,0.00,VWS V14.01,2013-02-09 19:49:00,
2013-02-09 14:55:00,50.9,18.1,30.26,WNW,289,2.0,6.0,27,0.00,,CLR,0.00,VWS V14.01,2013-02-09 19:55:00,
2013-02-09 15:00:00,51.0,19.1,30.26,North,5,2.0,6.0,28,0.00,,BKN049,0.00,VWS V14.01,2013-02-09 20:00:00,
2013-02-09 15:02:00,51.2,19.2,30.25,WNW,294,4.0,5.0,28,0.00,,CLR,0.00,VWS V14.01,2013-02-09 20:02:00,
2013-02-09 15:08:00,51.0,17.3,30.25,WNW,300,1.0,6.0,26,0.00,,CLR,0.00,VWS V14.01,2013-02-09 20:08:00,
2013-02-09 15:13:00,50.9,18.1,30.25,WNW,290,3.0,6.0,27,0.00,,CLR,0.00,VWS V14.01,2013-02-09 20:13:00,
2013-02-09 15:19:00,51.0,18.2,30.25,WNW,302,3.0,6.0,27,0.00,,CLR,0.00,VWS V14.01,2013-02-09 20:19:00,
2013-02-09 15:25:00,51.1,17.4,30.26,NW,309,1.0,6.0,26,0.00,,CLR,0.00,VWS V14.01,2013-02-09 20:25:00,
2013-02-09 15:30:00,51.2,16.6,30.26,NNE,20,2.0,6.0,25,0.00,,BKN049,0.00,VWS V14.01,2013-02-09 20:30:00,
2013-02-09 15:31:00,51.1,17.4,30.26,NNW,332,4.0,4.0,26,0.00,,CLR,0.00,VWS V14.01,2013-02-09 20:31:00,
2013-02-09 15:37:00,51.0,16.4,30.26,NW,313,1.0,4.0,25,0.00,,CLR,0.00,VWS V14.01,2013-02-09 20:37:00,
2013-02-09 15:42:00,51.3,18.5,30.26,WNW,288,3.0,5.0,27,0.00,,CLR,0.00,VWS V14.01,2013-02-09 20:42:00,
2013-02-09 15:47:00,51.8,18.0,30.27,WNW,292,5.0,5.0,26,0.00,,CLR,0.00,VWS V14.01,2013-02-09 20:47:00,
2013-02-09 15:53:00,51.7,16.1,30.27,WNW,286,4.0,6.0,24,0.00,,CLR,0.00,VWS V14.01,2013-02-09 20:53:00,
2013-02-09 15:58:00,51.8,18.0,30.27,NNW,328,2.0,9.0,26,0.00,,CLR,0.00,VWS V14.01,2013-02-09 20:58:00,
2013-02-09 16:00:00,51.8,17.1,30.27,WNW,303,1.0,9.0,25,0.00,,BKN049,0.00,VWS V14.01,2013-02-09 21:00:00,
2013-02-09 16:03:00,51.9,18.1,30.27,WNW,282,2.0,4.0,26,0.00,,CLR,0.00,VWS V14.01,2013-02-09 21:03:00,
2013-02-09 16:10:00,52.1,16.4,30.27,WNW,289,2.0,5.0,24,0.00,,CLR,0.00,VWS V14.01,2013-02-09 21:10:00,
2013-02-09 16:17:00,51.9,17.2,30.27,NNW,331,2.0,6.0,25,0.00,,CLR,0.00,VWS V14.01,2013-02-09 21:17:00,
2013-02-09 16:25:00,51.5,18.6,30.27,NNW,336,1.0,6.0,27,0.00,,CLR,0.00,VWS V14.01,2013-02-09 21:25:00,
2013-02-09 16:30:00,51.4,16.8,30.27,NW,326,0.0,1.0,25,0.00,,CLR,0.00,VWS V14.01,2013-02-09 21:30:00,
2013-02-09 16:37:00,51.3,17.6,30.27,WNW,286,3.0,5.0,26,0.00,,CLR,0.00,VWS V14.01,2013-02-09 21:37:00,
2013-02-09 16:42:00,51.2,17.5,30.27,NW,307,1.0,5.0,26,0.00,,CLR,0.00,VWS V14.01,2013-02-09 21:42:00,
2013-02-09 16:47:00,51.2,15.7,30.28,NNW,328,1.0,5.0,24,0.00,,CLR,0.00,VWS V14.01,2013-02-09 21:47:00,
2013-02-09 16:54:00,51.2,20.0,30.28,North,5,1.0,5.0,29,0.00,,CLR,0.00,VWS V14.01,2013-02-09 21:54:00,
2013-02-09 16:59:00,51.0,17.3,30.28,WNW,301,0.0,5.0,26,0.00,,CLR,0.00,VWS V14.01,2013-02-09 21:59:00,
2013-02-09 17:00:00,50.9,17.2,30.28,WNW,301,0.0,5.0,26,0.00,,BKN049,0.00,VWS V14.01,2013-02-09 22:00:00,
2013-02-09 17:05:00,50.6,19.5,30.28,North,360,0.0,4.0,29,0.00,,CLR,0.00,VWS V14.01,2013-02-09 22:05:00,
2013-02-09 17:11:00,50.2,18.4,30.29,NNW,345,0.0,4.0,28,0.00,,CLR,0.00,VWS V14.01,2013-02-09 22:11:00,
2013-02-09 17:16:00,50.0,20.6,30.29,North,360,1.0,4.0,31,0.00,,CLR,0.00,VWS V14.01,2013-02-09 22:16:00,
2013-02-09 17:24:00,49.5,18.6,30.29,NNW,341,0.0,4.0,29,0.00,,CLR,0.00,VWS V14.01,2013-02-09 22:24:00,
2013-02-09 17:29:00,49.3,19.2,30.29,North,355,0.0,4.0,30,0.00,,CLR,0.00,VWS V14.01,2013-02-09 22:29:00,
2013-02-09 17:30:00,49.3,19.2,30.29,North,355,0.0,4.0,30,0.00,,BKN049,0.00,VWS V14.01,2013-02-09 22:30:00,
2013-02-09 17:35:00,49.1,19.8,30.28,North,355,0.0,1.0,31,0.00,,CLR,0.00,VWS V14.01,2013-02-09 22:35:00,
2013-02-09 17:40:00,48.5,20.0,30.28,North,355,0.0,1.0,32,0.00,,CLR,0.00,VWS V14.01,2013-02-09 22:40:00,
2013-02-09 17:47:00,47.0,22.1,30.29,North,355,0.0,1.0,37,0.00,,CLR,0.00,VWS V14.01,2013-02-09 22:47:00,
2013-02-09 17:53:00,46.0,20.6,30.29,North,355,0.0,1.0,36,0.00,,CLR,0.00,VWS V14.01,2013-02-09 22:53:00,
2013-02-09 17:58:00,45.2,19.9,30.29,North,355,0.0,1.0,36,0.00,,CLR,0.00,VWS V14.01,2013-02-09 22:58:00,
2013-02-09 18:00:00,45.1,19.1,30.29,North,355,0.0,1.0,35,0.00,,BKN049,0.00,VWS V14.01,2013-02-09 23:00:00,
2013-02-09 18:03:00,44.8,18.2,30.29,North,355,0.0,0.0,34,0.00,,CLR,0.00,VWS V14.01,2013-02-09 23:03:00,
2013-02-09 18:09:00,44.4,19.8,30.29,North,355,0.0,0.0,37,0.00,,CLR,0.00,VWS V14.01,2013-02-09 23:09:00,
2013-02-09 18:14:00,43.8,19.2,30.28,North,355,0.0,0.0,37,0.00,,CLR,0.00,VWS V14.01,2013-02-09 23:14:00,
2013-02-09 18:19:00,43.5,19.6,30.28,North,360,0.0,0.0,38,0.00,,CLR,0.00,VWS V14.01,2013-02-09 23:19:00,
2013-02-09 18:25:00,42.8,19.0,30.29,NNE,14,1.0,1.0,38,0.00,,CLR,0.00,VWS V14.01,2013-02-09 23:25:00,
2013-02-09 18:30:00,42.5,19.9,30.29,ENE,66,0.0,0.0,40,0.00,,CLR,0.00,VWS V14.01,2013-02-09 23:30:00,
2013-02-09 18:36:00,41.0,24.3,30.29,ENE,66,0.0,0.0,51,0.00,,CLR,0.00,VWS V14.01,2013-02-09 23:36:00,
2013-02-09 18:42:00,39.4,22.8,30.29,ENE,60,1.0,1.0,51,0.00,,CLR,0.00,VWS V14.01,2013-02-09 23:42:00,
2013-02-09 18:47:00,38.7,21.7,30.29,NNE,22,1.0,2.0,50,0.00,,CLR,0.00,VWS V14.01,2013-02-09 23:47:00,
2013-02-09 18:52:00,38.6,21.6,30.30,NNE,22,1.0,2.0,50,0.00,,CLR,0.00,VWS V14.01,2013-02-09 23:52:00,
2013-02-09 18:58:00,37.8,24.0,30.30,SSW,209,0.0,3.0,57,0.00,,CLR,0.00,VWS V14.01,2013-02-09 23:58:00,
2013-02-09 19:00:00,37.7,22.6,30.30,South,186,3.0,3.0,54,0.00,,BKN049,0.00,VWS V14.01,2013-02-10 00:00:00,
2013-02-09 19:04:00,37.7,21.2,30.30,South,185,0.0,3.0,51,0.00,,CLR,0.00,VWS V14.01,2013-02-10 00:04:00,
2013-02-09 19:10:00,38.0,22.9,30.30,South,185,0.0,3.0,54,0.00,,CLR,0.00,VWS V14.01,2013-02-10 00:10:00,
2013-02-09 19:17:00,37.9,21.9,30.30,South,185,0.0,3.0,52,0.00,,CLR,0.00,VWS V14.01,2013-02-10 00:17:00,
2013-02-09 19:23:00,37.6,25.0,30.30,South,185,1.0,3.0,60,0.00,,CLR,0.00,VWS V14.01,2013-02-10 00:23:00,
2013-02-09 19:29:00,36.4,24.2,30.31,South,185,0.0,3.0,61,0.00,,CLR,0.00,VWS V14.01,2013-02-10 00:29:00,
2013-02-09 19:30:00,36.2,24.1,30.31,South,185,0.0,3.0,61,0.00,,BKN049,0.00,VWS V14.01,2013-02-10 00:30:00,
2013-02-09 19:34:00,35.8,22.1,30.31,South,185,0.0,0.0,57,0.00,,CLR,0.00,VWS V14.01,2013-02-10 00:34:00,
2013-02-09 19:40:00,35.8,22.9,30.31,South,185,0.0,0.0,59,0.00,,CLR,0.00,VWS V14.01,2013-02-10 00:40:00,
2013-02-09 19:47:00,35.4,25.2,30.31,South,185,2.0,3.0,66,0.00,,CLR,0.00,VWS V14.01,2013-02-10 00:47:00,
2013-02-09 19:52:00,34.6,22.9,30.31,South,184,0.0,3.0,62,0.00,,CLR,0.00,VWS V14.01,2013-02-10 00:52:00,
2013-02-09 19:57:00,34.5,24.0,30.32,South,184,0.0,3.0,65,0.00,,CLR,0.00,VWS V14.01,2013-02-10 00:57:00,
2013-02-09 20:00:00,34.5,24.7,30.32,South,184,0.0,3.0,67,0.00,,BKN049,0.00,VWS V14.01,2013-02-10 01:00:00,
2013-02-09 20:02:00,34.3,24.1,30.32,South,184,0.0,0.0,66,0.00,,CLR,0.00,VWS V14.01,2013-02-10 01:02:00,
2013-02-09 20:08:00,34.0,24.2,30.32,South,184,0.0,0.0,67,0.00,,CLR,0.00,VWS V14.01,2013-02-10 01:08:00,
2013-02-09 20:13:00,33.5,23.7,30.32,South,184,0.0,0.0,67,0.00,,CLR,0.00,VWS V14.01,2013-02-10 01:13:00,
2013-02-09 20:19:00,33.3,24.2,30.32,South,184,0.0,0.0,69,0.00,,CLR,0.00,VWS V14.01,2013-02-10 01:19:00,
2013-02-09 20:24:00,33.1,23.0,30.32,South,184,0.0,0.0,66,0.00,,CLR,0.00,VWS V14.01,2013-02-10 01:24:00,
2013-02-09 20:29:00,32.8,24.8,30.33,South,184,0.0,0.0,72,0.00,,CLR,0.00,VWS V14.01,2013-02-10 01:29:00,
2013-02-09 20:30:00,32.8,24.8,30.33,South,184,0.0,0.0,72,0.00,,BKN049,0.00,VWS V14.01,2013-02-10 01:30:00,
2013-02-09 20:35:00,32.1,24.1,30.33,South,184,0.0,0.0,72,0.00,,CLR,0.00,VWS V14.01,2013-02-10 01:35:00,
2013-02-09 20:40:00,31.7,24.4,30.33,South,184,0.0,0.0,74,0.00,,CLR,0.00,VWS V14.01,2013-02-10 01:40:00,
2013-02-09 20:46:00,31.4,23.8,30.33,South,184,0.0,0.0,73,0.00,,CLR,0.00,VWS V14.01,2013-02-10 01:46:00,
2013-02-09 20:51:00,31.2,23.6,30.33,South,184,0.0,0.0,73,0.00,,CLR,0.00,VWS V14.01,2013-02-10 01:51:00,
2013-02-09 20:56:00,31.0,23.7,30.33,South,184,0.0,0.0,74,0.00,,CLR,0.00,VWS V14.01,2013-02-10 01:56:00,
2013-02-09 21:00:00,31.0,23.7,30.33,NE,36,2.0,2.0,74,0.00,,BKN049,0.00,VWS V14.01,2013-02-10 02:00:00,
2013-02-09 21:04:00,30.9,22.6,30.33,NE,36,0.0,2.0,71,0.00,,CLR,0.00,VWS V14.01,2013-02-10 02:04:00,
2013-02-09 21:10:00,30.8,23.8,30.33,NE,36,0.0,2.0,75,0.00,,CLR,0.00,VWS V14.01,2013-02-10 02:10:00,
2013-02-09 21:15:00,30.6,23.0,30.33,NE,36,0.0,2.0,73,0.00,,CLR,0.00,VWS V14.01,2013-02-10 02:15:00,
2013-02-09 21:21:00,30.0,24.0,30.34,South,191,0.0,2.0,78,0.00,,CLR,0.00,VWS V14.01,2013-02-10 02:21:00,
2013-02-09 21:27:00,29.6,23.3,30.34,South,191,0.0,2.0,77,0.00,,CLR,0.00,VWS V14.01,2013-02-10 02:27:00,
2013-02-09 21:30:00,29.7,23.4,30.34,South,191,0.0,2.0,77,0.00,,BKN049,0.00,VWS V14.01,2013-02-10 02:30:00,
2013-02-09 21:33:00,29.8,23.5,30.34,South,191,0.0,0.0,77,0.00,,CLR,0.00,VWS V14.01,2013-02-10 02:33:00,
2013-02-09 21:39:00,29.9,23.9,30.35,South,191,0.0,0.0,78,0.00,,CLR,0.00,VWS V14.01,2013-02-10 02:39:00,
2013-02-09 21:47:00,29.7,23.4,30.35,South,191,0.0,0.0,77,0.00,,CLR,0.00,VWS V14.01,2013-02-10 02:47:00,
2013-02-09 21:52:00,29.5,23.8,30.34,South,191,0.0,0.0,79,0.00,,CLR,0.00,VWS V14.01,2013-02-10 02:52:00,
2013-02-09 21:59:00,29.4,24.0,30.34,South,191,0.0,0.0,80,0.00,,CLR,0.00,VWS V14.01,2013-02-10 02:59:00,
2013-02-09 22:00:00,29.4,24.0,30.34,South,191,0.0,0.0,80,0.00,,BKN049,0.00,VWS V14.01,2013-02-10 03:00:00,
2013-02-09 22:05:00,29.3,23.6,30.34,South,191,0.0,0.0,79,0.00,,CLR,0.00,VWS V14.01,2013-02-10 03:05:00,
2013-02-09 22:10:00,29.2,23.2,30.34,South,191,0.0,0.0,78,0.00,,CLR,0.00,VWS V14.01,2013-02-10 03:10:00,
2013-02-09 22:16:00,29.1,23.4,30.34,South,191,0.0,0.0,79,0.00,,CLR,0.00,VWS V14.01,2013-02-10 03:16:00,
2013-02-09 22:21:00,29.2,23.2,30.34,South,191,0.0,0.0,78,0.00,,CLR,0.00,VWS V14.01,2013-02-10 03:21:00,
2013-02-09 22:26:00,29.1,23.1,30.34,South,191,0.0,0.0,78,0.00,,CLR,0.00,VWS V14.01,2013-02-10 03:26:00,
2013-02-09 22:30:00,29.0,23.6,30.34,South,191,0.0,0.0,80,0.00,,BKN049,0.00,VWS V14.01,2013-02-10 03:30:00,
2013-02-09 22:33:00,28.8,23.7,30.34,South,191,0.0,0.0,81,0.00,,CLR,0.00,VWS V14.01,2013-02-10 03:33:00,
2013-02-09 22:38:00,28.6,23.5,30.34,South,191,0.0,0.0,81,0.00,,CLR,0.00,VWS V14.01,2013-02-10 03:38:00,
2013-02-09 22:44:00,28.4,23.6,30.34,South,191,0.0,0.0,82,0.00,,CLR,0.00,VWS V14.01,2013-02-10 03:44:00,
2013-02-09 22:49:00,28.1,23.6,30.34,South,191,0.0,0.0,83,0.00,,CLR,0.00,VWS V14.01,2013-02-10 03:49:00,
2013-02-09 22:55:00,28.0,22.6,30.34,South,191,0.0,0.0,80,0.00,,CLR,0.00,VWS V14.01,2013-02-10 03:55:00,
2013-02-09 23:00:00,28.1,22.1,30.34,South,191,0.0,0.0,78,0.00,,BKN049,0.00,VWS V14.01,2013-02-10 04:00:00,
2013-02-09 23:01:00,28.1,22.1,30.34,South,191,0.0,0.0,78,0.00,,CLR,0.00,VWS V14.01,2013-02-10 04:01:00,
2013-02-09 23:11:00,28.3,23.2,30.34,South,191,0.0,0.0,81,0.00,,CLR,0.00,VWS V14.01,2013-02-10 04:11:00,
2013-02-09 23:18:00,28.3,23.5,30.34,South,191,0.0,0.0,82,0.00,,CLR,0.00,VWS V14.01,2013-02-10 04:18:00,
2013-02-09 23:25:00,28.1,23.3,30.34,South,191,0.0,0.0,82,0.00,,CLR,0.00,VWS V14.01,2013-02-10 04:25:00,
2013-02-09 23:30:00,27.9,22.8,30.34,South,191,0.0,0.0,81,0.00,,BKN049,0.00,VWS V14.01,2013-02-10 04:30:00,
2013-02-09 23:31:00,27.9,22.5,30.34,South,191,0.0,0.0,80,0.00,,CLR,0.00,VWS V14.01,2013-02-10 04:31:00,
2013-02-09 23:36:00,27.8,23.0,30.35,South,191,0.0,0.0,82,0.00,,CLR,0.00,VWS V14.01,2013-02-10 04:36:00,
2013-02-09 23:42:00,27.5,23.0,30.35,South,191,0.0,0.0,83,0.00,,CLR,0.00,VWS V14.01,2013-02-10 04:42:00,
2013-02-09 23:48:00,27.3,23.1,30.35,South,191,0.0,0.0,84,0.00,,CLR,0.00,VWS V14.01,2013-02-10 04:48:00,
2013-02-09 23:54:00,27.0,22.5,30.35,South,191,0.0,0.0,83,0.00,,CLR,0.00,VWS V14.01,2013-02-10 04:54:00,
2013-02-09 23:59:00,27.0,22.8,30.35,South,191,0.0,0.0,84,0.00,,CLR,0.00,VWS V14.01,2013-02-10 04:59:00,